User: anonymous   Login
Location: Cossonay
(46.5833°N, 6.4167°E)
Time: 02:03:29
(UTC+00:00)
Language:

Cosmos 1400 Rocket - Orbit

View from above orbital plane
View from above orbital plane
View from above satellite
View from above satellite

Ground track
Ground track

The orbit data is extracted from the following two-line orbital elements,

1 13403U 82079B   20221.71883527 -.00000317  00000-0 -22450-4 0  9995
2 13403  81.1691  33.1321 0034614  91.3608 269.1582 15.07196957 69690
Epoch (UTC): 08 August 2020 17:15:07
Eccentricity: 0.0034614
inclination: 81.1691°
perigee height: 521 km
apogee height: 569 km
right ascension of ascending node: 33.1321°
argument of perigee: 91.3608°
revolutions per day: 15.07196957
mean anomaly at epoch: 269.1582°
orbit number at epoch: 6969

The dashed part of the orbit path shows where the satellite is in the earth's shadow,  

DLR